| time (UTC) | temp F | wind direction | speed MPH | gust MPH | rain 1hr in | rain 24hr in | rain mn in | humidity % | barometer mb |
| 20260906123036 | 92 | 298 | 12.0 | 17.0 | 0.00 | 0.00 | 0.00 | 21 | 1012.9 |
| 20260906122536 | 93 | 331 | 6.0 | 9.0 | 0.00 | 0.00 | 0.00 | 21 | 1012.9 |
| 20260906122036 | 93 | 174 | 4.0 | 8.0 | 0.00 | 0.00 | 0.00 | 21 | 1012.5 |
| 20260906121536 | 93 | 247 | 7.0 | 9.0 | 0.00 | 0.00 | 0.00 | 20 | 1012.9 |
| 20260906121036 | 93 | 270 | 7.0 | 11.0 | 0.00 | 0.00 | 0.00 | 20 | 1012.9 |
| 20260906120536 | 93 | 278 | 7.0 | 14.0 | 0.00 | 0.00 | 0.00 | 18 | 1012.9 |
| 20260906120036 | 93 | 285 | 7.0 | 10.0 | 0.00 | 0.00 | 0.00 | 18 | 1012.9 |
| 20260906115536 | 92 | 258 | 4.0 | 6.0 | 0.00 | 0.00 | 0.00 | 19 | 1012.9 |
| 20260906115036 | 92 | 242 | 5.0 | 5.0 | 0.00 | 0.00 | 0.00 | 18 | 1012.9 |
| 20260906114536 | 92 | 271 | 8.0 | 10.0 | 0.00 | 0.00 | 0.00 | 18 | 1012.9 |
| 20260906114037 | 92 | 255 | 6.0 | 8.0 | 0.00 | 0.00 | 0.00 | 20 | 1012.9 |
| 20260906113538 | 93 | 273 | 6.0 | 8.0 | 0.00 | 0.00 | 0.00 | 20 | 1013.2 |
| 20260906113036 | 92 | 306 | 9.0 | 13.0 | 0.00 | 0.00 | 0.00 | 19 | 1013.2 |
| 20260906112536 | 92 | 319 | 5.0 | 7.0 | 0.00 | 0.00 | 0.00 | 20 | 1013.2 |
| 20260906112036 | 92 | 63 | 7.0 | 15.0 | 0.00 | 0.00 | 0.00 | 19 | 1013.2 |
| 20260906111537 | 92 | 249 | 6.0 | 7.0 | 0.00 | 0.00 | 0.00 | 20 | 1013.2 |
| 20260906111036 | 92 | 290 | 6.0 | 7.0 | 0.00 | 0.00 | 0.00 | 19 | 1013.2 |
| 20260906110536 | 91 | 343 | 9.0 | 9.0 | 0.00 | 0.00 | 0.00 | 20 | 1013.2 |
| 20260906110036 | 92 | 3 | 4.0 | 6.0 | 0.00 | 0.00 | 0.00 | 20 | 1013.2 |
| 20260906105537 | 91 | 188 | 4.0 | 7.0 | 0.00 | 0.00 | 0.00 | 19 | 1013.2 |
| 20260906105036 | 92 | 278 | 5.0 | 6.0 | 0.00 | 0.00 | 0.00 | 19 | 1013.5 |
| 20260906104536 | 92 | 304 | 6.0 | 8.0 | 0.00 | 0.00 | 0.00 | 21 | 1013.2 |
| 20260906104036 | 92 | 311 | 13.0 | 15.0 | 0.00 | 0.00 | 0.00 | 20 | 1013.2 |
| 20260906103536 | 91 | 267 | 3.0 | 3.0 | 0.00 | 0.00 | 0.00 | 22 | 1013.2 |
| 20260906103036 | 91 | 248 | 4.0 | 6.0 | 0.00 | 0.00 | 0.00 | 22 | 1013.2 |
| 20260906102536 | 91 | 296 | 9.0 | 11.0 | 0.00 | 0.00 | 0.00 | 23 | 1013.2 |
| 20260906102036 | 91 | 270 | 9.0 | 13.0 | 0.00 | 0.00 | 0.00 | 22 | 1013.5 |
| 20260906101536 | 91 | 239 | 6.0 | 8.0 | 0.00 | 0.00 | 0.00 | 22 | 1013.5 |
| 20260906101036 | 91 | 326 | 3.0 | 5.0 | 0.00 | 0.00 | 0.00 | 22 | 1013.5 |
| 20260906100537 | 90 | 269 | 4.0 | 6.0 | 0.00 | 0.00 | 0.00 | 23 | 1013.5 |
| 20260906100036 | 91 | 333 | 10.0 | 13.0 | 0.00 | 0.00 | 0.00 | 22 | 1013.5 |
| 20260906095537 | 90 | 285 | 3.0 | 3.0 | 0.00 | 0.00 | 0.00 | 22 | 1013.5 |
| 20260906095036 | 90 | 298 | 9.0 | 13.0 | 0.00 | 0.00 | 0.00 | 22 | 1013.5 |
| 20260906094536 | 90 | 321 | 10.0 | 11.0 | 0.00 | 0.00 | 0.00 | 21 | 1013.5 |
| 20260906094037 | 90 | 262 | 9.0 | 16.0 | 0.00 | 0.00 | 0.00 | 21 | 1013.5 |
| 20260906093541 | 90 | 286 | 6.0 | 10.0 | 0.00 | 0.00 | 0.00 | 19 | 1013.9 |
| 20260906093036 | 90 | 303 | 8.0 | 11.0 | 0.00 | 0.00 | 0.00 | 21 | 1013.9 |
| 20260906092536 | 89 | 306 | 8.0 | 9.0 | 0.00 | 0.00 | 0.00 | 22 | 1013.9 |
| 20260906092036 | 89 | 272 | 7.0 | 9.0 | 0.00 | 0.00 | 0.00 | 23 | 1013.9 |
| 20260906091537 | 89 | 278 | 5.0 | 5.0 | 0.00 | 0.00 | 0.00 | 23 | 1013.9 |
| 20260906091036 | 89 | 323 | 2.0 | 3.0 | 0.00 | 0.00 | 0.00 | 23 | 1013.9 |
| 20260906090536 | 89 | 279 | 4.0 | 7.0 | 0.00 | 0.00 | 0.00 | 23 | 1013.9 |
| 20260906090037 | 89 | 262 | 8.0 | 14.0 | 0.00 | 0.00 | 0.00 | 24 | 1013.9 |
| 20260906085537 | 88 | 262 | 4.0 | 6.0 | 0.00 | 0.00 | 0.00 | 25 | 1014.2 |
| 20260906085036 | 88 | 237 | 8.0 | 10.0 | 0.00 | 0.00 | 0.00 | 25 | 1014.2 |
| 20260906084539 | 89 | 261 | 7.0 | 11.0 | 0.00 | 0.00 | 0.00 | 25 | 1014.2 |
| 20260906084037 | 88 | 252 | 5.0 | 8.0 | 0.00 | 0.00 | 0.00 | 25 | 1014.2 |
| 20260906083536 | 88 | 247 | 11.0 | 16.0 | 0.00 | 0.00 | 0.00 | 25 | 1014.2 |
| 20260906083037 | 89 | 330 | 7.0 | 9.0 | 0.00 | 0.00 | 0.00 | 25 | 1014.2 |
| 20260906082537 | 88 | 309 | 2.0 | 3.0 | 0.00 | 0.00 | 0.00 | 24 | 1014.2 |
| 20260906082036 | 87 | 274 | 5.0 | 8.0 | 0.00 | 0.00 | 0.00 | 24 | 1014.2 |
| 20260906081536 | 87 | 278 | 9.0 | 10.0 | 0.00 | 0.00 | 0.00 | 25 | 1014.2 |
| 20260906081036 | 87 | 293 | 8.0 | 11.0 | 0.00 | 0.00 | 0.00 | 26 | 1014.6 |
| 20260906080536 | 86 | 266 | 7.0 | 10.0 | 0.00 | 0.00 | 0.00 | 27 | 1014.2 |
| 20260906080036 | 87 | 199 | 3.0 | 2.0 | 0.00 | 0.00 | 0.00 | 34 | 1014.6 |
| 20260906075536 | 87 | 90 | 2.0 | 2.0 | 0.00 | 0.00 | 0.00 | 33 | 1014.6 |
| 20260906075036 | 86 | 207 | 3.0 | 5.0 | 0.00 | 0.00 | 0.00 | 36 | 1014.6 |
| 20260906074536 | 85 | 97 | 1.0 | 1.0 | 0.00 | 0.00 | 0.00 | 38 | 1014.9 |
| 20260906074036 | 84 | 261 | 1.0 | 1.0 | 0.00 | 0.00 | 0.00 | 40 | 1014.6 |
| 20260906073537 | 83 | 108 | 3.0 | 5.0 | 0.00 | 0.00 | 0.00 | 42 | 1014.9 |
| 20260906073036 | 84 | 84 | 5.0 | 6.0 | 0.00 | 0.00 | 0.00 | 42 | 1014.6 |
| 20260906072536 | 83 | 199 | 1.0 | 2.0 | 0.00 | 0.00 | 0.00 | 43 | 1014.9 |
| 20260906072037 | 82 | 227 | 1.0 | 1.0 | 0.00 | 0.00 | 0.00 | 44 | 1014.9 |
| 20260906071536 | 82 | 157 | 1.0 | 1.0 | 0.00 | 0.00 | 0.00 | 45 | 1014.9 |
| 20260906071037 | 81 | 107 | 0.0 | 0.0 | 0.00 | 0.00 | 0.00 | 46 | 1015.2 |
| 20260906070536 | 81 | 177 | 2.0 | 2.0 | 0.00 | 0.00 | 0.00 | 46 | 1014.9 |
| 20260906070037 | 81 | 126 | 3.0 | 3.0 | 0.00 | 0.00 | 0.00 | 45 | 1014.9 |
| 20260906065536 | 81 | 100 | 0.0 | 0.0 | 0.00 | 0.00 | 0.00 | 46 | 1015.2 |
| 20260906065036 | 80 | 148 | 0.0 | 0.0 | 0.00 | 0.00 | 0.00 | 46 | 1015.2 |
| 20260906064536 | 80 | 164 | 2.0 | 3.0 | 0.00 | 0.00 | 0.00 | 47 | 1014.9 |
| 20260906064037 | 80 | 157 | 1.0 | 1.0 | 0.00 | 0.00 | 0.00 | 48 | 1015.2 |
| 20260906063536 | 80 | 211 | 2.0 | 2.0 | 0.00 | 0.00 | 0.00 | 48 | 1015.2 |
| 20260906063036 | 79 | 177 | 2.0 | 2.0 | 0.00 | 0.00 | 0.00 | 50 | 1015.2 |
| 20260906062536 | 78 | 189 | 0.0 | 0.0 | 0.00 | 0.00 | 0.00 | 51 | 1015.2 |
| 20260906062037 | 78 | 202 | 3.0 | 3.0 | 0.00 | 0.00 | 0.00 | 51 | 1015.2 |
| 20260906061537 | 78 | 209 | 0.0 | 0.0 | 0.00 | 0.00 | 0.00 | 52 | 1015.2 |
| 20260906061037 | 78 | 102 | 0.0 | 0.0 | 0.00 | 0.00 | 0.00 | 52 | 1015.2 |
| 20260906060536 | 77 | 233 | 0.0 | 0.0 | 0.00 | 0.00 | 0.00 | 55 | 1015.2 |
| 20260906060036 | 76 | 146 | 2.0 | 2.0 | 0.00 | 0.00 | 0.00 | 55 | 1015.2 |
| 20260906055536 | 75 | 212 | 0.0 | 0.0 | 0.00 | 0.00 | 0.00 | 56 | 1014.9 |
| 20260906055036 | 76 | 258 | 3.0 | 3.0 | 0.00 | 0.00 | 0.00 | 54 | 1015.2 |
| 20260906054536 | 76 | 153 | 3.0 | 5.0 | 0.00 | 0.00 | 0.00 | 53 | 1015.2 |
| 20260906054036 | 76 | 172 | 2.0 | 2.0 | 0.00 | 0.00 | 0.00 | 54 | 1015.2 |
| 20260906053536 | 75 | 171 | 2.0 | 2.0 | 0.00 | 0.00 | 0.00 | 56 | 1014.9 |
| 20260906053036 | 74 | 276 | 2.0 | 2.0 | 0.00 | 0.00 | 0.00 | 56 | 1014.9 |
| 20260906052536 | 74 | 278 | 3.0 | 2.0 | 0.00 | 0.00 | 0.00 | 56 | 1015.2 |
| 20260906052038 | 75 | 273 | 3.0 | 2.0 | 0.00 | 0.00 | 0.00 | 54 | 1015.2 |
| 20260906051536 | 75 | 287 | 3.0 | 3.0 | 0.00 | 0.00 | 0.00 | 56 | 1015.2 |
| 20260906051036 | 75 | 226 | 3.0 | 3.0 | 0.00 | 0.00 | 0.00 | 57 | 1015.2 |
| 20260906050537 | 75 | 85 | 1.0 | 2.0 | 0.00 | 0.00 | 0.00 | 58 | 1014.9 |
| 20260906050036 | 73 | 45 | 0.0 | 0.0 | 0.00 | 0.00 | 0.00 | 60 | 1014.9 |
| 20260906045536 | 73 | 356 | 2.0 | 2.0 | 0.00 | 0.00 | 0.00 | 62 | 1014.9 |
| 20260906045036 | 73 | 35 | 3.0 | 3.0 | 0.00 | 0.00 | 0.00 | 62 | 1014.9 |
| 20260906044536 | 74 | 60 | 0.0 | 0.0 | 0.00 | 0.00 | 0.00 | 61 | 1014.9 |
| 20260906044036 | 74 | 52 | 0.0 | 0.0 | 0.00 | 0.00 | 0.00 | 61 | 1014.9 |
| 20260906043537 | 73 | 344 | 0.0 | 0.0 | 0.00 | 0.00 | 0.00 | 62 | 1015.2 |
| 20260906043036 | 73 | 77 | 0.0 | 0.0 | 0.00 | 0.00 | 0.00 | 64 | 1014.9 |
| 20260906042536 | 72 | 86 | 0.0 | 0.0 | 0.00 | 0.00 | 0.00 | 65 | 1014.9 |
| 20260906042036 | 71 | 99 | 0.0 | 0.0 | 0.00 | 0.00 | 0.00 | 67 | 1014.9 |
| 20260906041538 | 70 | 87 | 2.0 | 2.0 | 0.00 | 0.00 | 0.00 | 68 | 1014.9 |
| 20260906041036 | 71 | 59 | 2.0 | 3.0 | 0.00 | 0.00 | 0.00 | 68 | 1014.9 |
| 20260906040537 | 70 | 78 | 1.0 | 1.0 | 0.00 | 0.00 | 0.00 | 69 | 1014.9 |
| 20260906040036 | 71 | 41 | 1.0 | 2.0 | 0.00 | 0.00 | 0.00 | 68 | 1014.9 |
| 20260906035537 | 71 | 67 | 1.0 | 1.0 | 0.00 | 0.00 | 0.00 | 67 | 1014.9 |
| 20260906035037 | 70 | 98 | 0.0 | 0.0 | 0.00 | 0.00 | 0.00 | 69 | 1014.6 |
| 20260906034536 | 70 | 90 | 1.0 | 1.0 | 0.00 | 0.00 | 0.00 | 69 | 1014.6 |
| 20260906034036 | 69 | 98 | 3.0 | 2.0 | 0.00 | 0.00 | 0.00 | 70 | 1014.6 |
| 20260906033536 | 69 | 92 | 3.0 | 3.0 | 0.00 | 0.00 | 0.00 | 70 | 1014.6 |
| 20260906033037 | 70 | 109 | 2.0 | 2.0 | 0.00 | 0.00 | 0.00 | 69 | 1014.6 |
| 20260906032539 | 70 | 85 | 3.0 | 3.0 | 0.00 | 0.00 | 0.00 | 68 | 1014.6 |
| 20260906032036 | 70 | 73 | 3.0 | 5.0 | 0.00 | 0.00 | 0.00 | 66 | 1014.6 |
| 20260906031536 | 70 | 87 | 2.0 | 2.0 | 0.00 | 0.00 | 0.00 | 64 | 1014.2 |
| 20260906031036 | 70 | 84 | 1.0 | 2.0 | 0.00 | 0.00 | 0.00 | 60 | 1014.2 |
| 20260906030536 | 71 | 60 | 2.0 | 3.0 | 0.00 | 0.00 | 0.00 | 58 | 1014.2 |
| 20260906030036 | 71 | 93 | 0.0 | 0.0 | 0.00 | 0.00 | 0.00 | 58 | 1014.2 |
| 20260906025536 | 71 | 119 | 0.0 | 0.0 | 0.00 | 0.00 | 0.00 | 57 | 1013.9 |
| 20260906025036 | 71 | 107 | 0.0 | 0.0 | 0.00 | 0.00 | 0.00 | 57 | 1014.2 |
| 20260906024536 | 72 | 96 | 1.0 | 1.0 | 0.00 | 0.00 | 0.00 | 56 | 1014.2 |
| 20260906024037 | 71 | 108 | 0.0 | 0.0 | 0.00 | 0.00 | 0.00 | 57 | 1014.2 |
| 20260906023536 | 72 | 142 | 0.0 | 0.0 | 0.00 | 0.00 | 0.00 | 56 | 1014.2 |
| 20260906023036 | 72 | 140 | 0.0 | 0.0 | 0.00 | 0.00 | 0.00 | 55 | 1013.9 |
| 20260906022536 | 72 | 130 | 0.0 | 0.0 | 0.00 | 0.00 | 0.00 | 56 | 1013.9 |
| 20260906022036 | 72 | 136 | 0.0 | 0.0 | 0.00 | 0.00 | 0.00 | 55 | 1013.9 |
| 20260906021536 | 72 | 125 | 0.0 | 0.0 | 0.00 | 0.00 | 0.00 | 56 | 1013.9 |
| 20260906021037 | 72 | 85 | 0.0 | 0.0 | 0.00 | 0.00 | 0.00 | 55 | 1013.9 |
| 20260906020536 | 72 | 106 | 0.0 | 0.0 | 0.00 | 0.00 | 0.00 | 54 | 1013.5 |
| 20260906020036 | 72 | 108 | 0.0 | 0.0 | 0.00 | 0.00 | 0.00 | 55 | 1013.5 |
| 20260906015537 | 72 | 120 | 0.0 | 0.0 | 0.00 | 0.00 | 0.00 | 55 | 1013.5 |
| 20260906015036 | 72 | 126 | 0.0 | 0.0 | 0.00 | 0.00 | 0.00 | 55 | 1013.9 |
| 20260906014536 | 72 | 115 | 0.0 | 0.0 | 0.00 | 0.00 | 0.00 | 54 | 1013.5 |
| 20260906014037 | 72 | 116 | 0.0 | 0.0 | 0.00 | 0.00 | 0.00 | 55 | 1013.5 |
| 20260906013536 | 71 | 116 | 0.0 | 0.0 | 0.00 | 0.00 | 0.00 | 56 | 1013.9 |
| 20260906013036 | 72 | 82 | 0.0 | 0.0 | 0.00 | 0.00 | 0.00 | 55 | 1013.5 |
| 20260906012536 | 72 | 112 | 1.0 | 1.0 | 0.00 | 0.00 | 0.00 | 54 | 1013.9 |
| 20260906012036 | 72 | 159 | 1.0 | 1.0 | 0.00 | 0.00 | 0.00 | 55 | 1013.9 |
| 20260906011536 | 73 | 99 | 1.0 | 1.0 | 0.00 | 0.00 | 0.00 | 55 | 1013.9 |
| 20260906011036 | 73 | 148 | 0.0 | 0.0 | 0.00 | 0.00 | 0.00 | 55 | 1013.5 |
| 20260906010536 | 73 | 137 | 0.0 | 0.0 | 0.00 | 0.00 | 0.00 | 55 | 1013.5 |
| 20260906010037 | 72 | 118 | 0.0 | 0.0 | 0.00 | 0.00 | 0.00 | 55 | 1013.5 |
| 20260906005536 | 72 | 147 | 0.0 | 0.0 | 0.00 | 0.00 | 0.00 | 56 | 1013.9 |
| 20260906005036 | 72 | 122 | 2.0 | 2.0 | 0.00 | 0.00 | 0.00 | 56 | 1013.5 |
| 20260906004537 | 73 | 126 | 0.0 | 0.0 | 0.00 | 0.00 | 0.00 | 57 | 1013.9 |
| 20260906004036 | 73 | 88 | 0.0 | 0.0 | 0.00 | 0.00 | 0.00 | 57 | 1013.9 |
| 20260906003537 | 73 | 120 | 0.0 | 0.0 | 0.00 | 0.00 | 0.00 | 56 | 1013.9 |
| 20260906003038 | 73 | 125 | 0.0 | 0.0 | 0.00 | 0.00 | 0.00 | 56 | 1013.5 |
| 20260906002536 | 73 | 98 | 0.0 | 0.0 | 0.00 | 0.00 | 0.00 | 56 | 1013.5 |
| 20260906002036 | 73 | 119 | 0.0 | 0.0 | 0.00 | 0.00 | 0.00 | 56 | 1013.9 |
| 20260906001537 | 73 | 120 | 0.0 | 0.0 | 0.00 | 0.00 | 0.00 | 56 | 1013.9 |
| 20260906001036 | 73 | 102 | 1.0 | 1.0 | 0.00 | 0.00 | 0.00 | 56 | 1013.9 |
| 20260906000536 | 73 | 157 | 0.0 | 0.0 | 0.00 | 0.00 | 0.00 | 57 | 1013.9 |
| 20260906000036 | 73 | 111 | 0.0 | 0.0 | 0.00 | 0.00 | 0.00 | 57 | 1013.5 |
| 20260905235536 | 74 | 115 | 0.0 | 0.0 | 0.00 | 0.00 | 0.00 | 57 | 1014.2 |
| 20260905235036 | 74 | 171 | 0.0 | 0.0 | 0.00 | 0.00 | 0.00 | 56 | 1013.9 |
| 20260905234536 | 74 | 211 | 0.0 | 0.0 | 0.00 | 0.00 | 0.00 | 56 | 1013.9 |
| 20260905234038 | 73 | 144 | 0.0 | 0.0 | 0.00 | 0.00 | 0.00 | 57 | 1013.9 |
| 20260905233537 | 73 | 129 | 0.0 | 0.0 | 0.00 | 0.00 | 0.00 | 57 | 1013.9 |
| 20260905233036 | 74 | 156 | 0.0 | 0.0 | 0.00 | 0.00 | 0.00 | 56 | 1013.9 |
| 20260905232536 | 74 | 129 | 0.0 | 0.0 | 0.00 | 0.00 | 0.00 | 56 | 1013.9 |
| 20260905232037 | 74 | 121 | 0.0 | 0.0 | 0.00 | 0.00 | 0.00 | 57 | 1013.9 |
| 20260905231536 | 74 | 218 | 0.0 | 0.0 | 0.00 | 0.00 | 0.00 | 57 | 1014.2 |
| 20260905231037 | 73 | 240 | 0.0 | 0.0 | 0.00 | 0.00 | 0.00 | 57 | 1013.9 |
| 20260905230536 | 74 | 270 | 0.0 | 0.0 | 0.00 | 0.00 | 0.00 | 57 | 1013.9 |
| 20260905230036 | 74 | 251 | 1.0 | 1.0 | 0.00 | 0.00 | 0.00 | 57 | 1013.9 |
| 20260905225536 | 74 | 144 | 3.0 | 2.0 | 0.00 | 0.00 | 0.00 | 57 | 1013.9 |
| 20260905225036 | 73 | 264 | 1.0 | 1.0 | 0.00 | 0.00 | 0.00 | 57 | 1013.9 |
| 20260905224537 | 73 | 279 | 2.0 | 2.0 | 0.00 | 0.00 | 0.00 | 57 | 1013.9 |
| 20260905224036 | 73 | 242 | 2.0 | 3.0 | 0.00 | 0.00 | 0.00 | 57 | 1013.9 |
| 20260905223537 | 74 | 279 | 2.0 | 2.0 | 0.00 | 0.00 | 0.00 | 57 | 1013.9 |
| 20260905223036 | 74 | 236 | 3.0 | 3.0 | 0.00 | 0.00 | 0.00 | 56 | 1013.9 |
| 20260905222536 | 73 | 265 | 2.0 | 2.0 | 0.00 | 0.00 | 0.00 | 57 | 1013.9 |
| 20260905222036 | 74 | 248 | 3.0 | 5.0 | 0.00 | 0.00 | 0.00 | 57 | 1013.9 |
| 20260905221536 | 74 | 255 | 2.0 | 2.0 | 0.00 | 0.00 | 0.00 | 58 | 1013.9 |
| 20260905221036 | 74 | 254 | 2.0 | 2.0 | 0.00 | 0.00 | 0.00 | 57 | 1014.2 |
| 20260905220536 | 74 | 234 | 2.0 | 2.0 | 0.00 | 0.00 | 0.00 | 57 | 1013.9 |
| 20260905220036 | 74 | 265 | 3.0 | 5.0 | 0.00 | 0.00 | 0.00 | 57 | 1014.2 |
| 20260905215536 | 74 | 260 | 2.0 | 3.0 | 0.00 | 0.00 | 0.00 | 57 | 1014.2 |
| 20260905215036 | 74 | 267 | 5.0 | 7.0 | 0.00 | 0.00 | 0.00 | 57 | 1014.6 |
| 20260905214536 | 74 | 231 | 1.0 | 2.0 | 0.00 | 0.00 | 0.00 | 56 | 1014.2 |
| 20260905214036 | 74 | 261 | 1.0 | 1.0 | 0.00 | 0.00 | 0.00 | 56 | 1014.2 |
| 20260905213537 | 74 | 237 | 3.0 | 5.0 | 0.00 | 0.00 | 0.00 | 56 | 1014.2 |
| 20260905213036 | 75 | 273 | 4.0 | 7.0 | 0.00 | 0.00 | 0.00 | 55 | 1014.2 |
| 20260905212536 | 75 | 224 | 1.0 | 1.0 | 0.00 | 0.00 | 0.00 | 55 | 1014.2 |
| 20260905212036 | 75 | 257 | 1.0 | 1.0 | 0.00 | 0.00 | 0.00 | 54 | 1014.6 |
| 20260905211536 | 75 | 239 | 1.0 | 1.0 | 0.00 | 0.00 | 0.00 | 54 | 1014.6 |
| 20260905211036 | 75 | 241 | 2.0 | 2.0 | 0.00 | 0.00 | 0.00 | 54 | 1014.6 |
| 20260905210536 | 75 | 280 | 1.0 | 2.0 | 0.00 | 0.00 | 0.00 | 54 | 1014.2 |
| 20260905210036 | 75 | 278 | 3.0 | 3.0 | 0.00 | 0.00 | 0.00 | 53 | 1014.6 |
| 20260905205536 | 76 | 252 | 1.0 | 2.0 | 0.00 | 0.00 | 0.00 | 51 | 1014.2 |
| 20260905205036 | 76 | 220 | 1.0 | 1.0 | 0.00 | 0.00 | 0.00 | 50 | 1014.6 |
| 20260905204536 | 76 | 227 | 2.0 | 2.0 | 0.00 | 0.00 | 0.00 | 49 | 1014.6 |
| 20260905204036 | 76 | 268 | 1.0 | 1.0 | 0.00 | 0.00 | 0.00 | 49 | 1014.6 |
| 20260905203537 | 76 | 268 | 4.0 | 6.0 | 0.00 | 0.00 | 0.00 | 49 | 1014.6 |
| 20260905203036 | 76 | 250 | 0.0 | 0.0 | 0.00 | 0.00 | 0.00 | 48 | 1014.6 |
| 20260905202537 | 77 | 231 | 1.0 | 2.0 | 0.00 | 0.00 | 0.00 | 47 | 1014.6 |
| 20260905202036 | 77 | 187 | 0.0 | 0.0 | 0.00 | 0.00 | 0.00 | 46 | 1014.6 |
| 20260905201536 | 77 | 226 | 1.0 | 2.0 | 0.00 | 0.00 | 0.00 | 45 | 1014.2 |
| 20260905201036 | 77 | 264 | 2.0 | 2.0 | 0.00 | 0.00 | 0.00 | 45 | 1014.6 |
| 20260905200537 | 77 | 227 | 0.0 | 0.0 | 0.00 | 0.00 | 0.00 | 45 | 1014.6 |
| 20260905200037 | 78 | 268 | 5.0 | 5.0 | 0.00 | 0.00 | 0.00 | 43 | 1014.6 |
| 20260905195536 | 78 | 225 | 0.0 | 0.0 | 0.00 | 0.00 | 0.00 | 44 | 1014.9 |
| 20260905195037 | 78 | 256 | 1.0 | 2.0 | 0.00 | 0.00 | 0.00 | 43 | 1014.6 |
| 20260905194536 | 78 | 271 | 5.0 | 6.0 | 0.00 | 0.00 | 0.00 | 43 | 1014.9 |
| 20260905194036 | 78 | 248 | 0.0 | 0.0 | 0.00 | 0.00 | 0.00 | 44 | 1014.6 |
| 20260905193536 | 78 | 236 | 0.0 | 0.0 | 0.00 | 0.00 | 0.00 | 44 | 1014.9 |
| 20260905193036 | 78 | 246 | 2.0 | 2.0 | 0.00 | 0.00 | 0.00 | 44 | 1014.9 |
| 20260905192536 | 78 | 255 | 2.0 | 3.0 | 0.00 | 0.00 | 0.00 | 44 | 1014.6 |
| 20260905192036 | 78 | 232 | 0.0 | 0.0 | 0.00 | 0.00 | 0.00 | 44 | 1014.6 |
| 20260905191536 | 78 | 255 | 2.0 | 2.0 | 0.00 | 0.00 | 0.00 | 44 | 1014.6 |
| 20260905191036 | 78 | 222 | 3.0 | 3.0 | 0.00 | 0.00 | 0.00 | 44 | 1014.6 |
| 20260905190536 | 79 | 258 | 1.0 | 1.0 | 0.00 | 0.00 | 0.00 | 44 | 1014.6 |
| 20260905190037 | 79 | 239 | 2.0 | 3.0 | 0.00 | 0.00 | 0.00 | 45 | 1014.2 |
| 20260905185536 | 79 | 213 | 1.0 | 1.0 | 0.00 | 0.00 | 0.00 | 44 | 1014.2 |
| 20260905185036 | 79 | 227 | 4.0 | 5.0 | 0.00 | 0.00 | 0.00 | 44 | 1014.6 |
| 20260905184537 | 79 | 250 | 3.0 | 3.0 | 0.00 | 0.00 | 0.00 | 44 | 1014.6 |
| 20260905184036 | 79 | 242 | 2.0 | 3.0 | 0.00 | 0.00 | 0.00 | 44 | 1014.6 |
| 20260905183539 | 79 | 257 | 4.0 | 6.0 | 0.00 | 0.00 | 0.00 | 44 | 1014.6 |
| 20260905183036 | 79 | 231 | 0.0 | 0.0 | 0.00 | 0.00 | 0.00 | 44 | 1014.6 |
| 20260905182536 | 79 | 228 | 0.0 | 0.0 | 0.00 | 0.00 | 0.00 | 45 | 1014.6 |
| 20260905182036 | 79 | 248 | 2.0 | 2.0 | 0.00 | 0.00 | 0.00 | 44 | 1014.6 |
| 20260905181536 | 79 | 261 | 0.0 | 0.0 | 0.00 | 0.00 | 0.00 | 44 | 1014.6 |
| 20260905181036 | 79 | 245 | 0.0 | 0.0 | 0.00 | 0.00 | 0.00 | 44 | 1014.6 |
| 20260905180536 | 79 | 255 | 3.0 | 5.0 | 0.00 | 0.00 | 0.00 | 44 | 1014.6 |
| 20260905180036 | 80 | 249 | 4.0 | 6.0 | 0.00 | 0.00 | 0.00 | 43 | 1014.6 |
| 20260905175536 | 80 | 238 | 1.0 | 1.0 | 0.00 | 0.00 | 0.00 | 43 | 1014.6 |
| 20260905175036 | 80 | 229 | 2.0 | 3.0 | 0.00 | 0.00 | 0.00 | 42 | 1014.6 |
| 20260905174537 | 80 | 259 | 3.0 | 3.0 | 0.00 | 0.00 | 0.00 | 42 | 1014.6 |
| 20260905174036 | 80 | 200 | 3.0 | 5.0 | 0.00 | 0.00 | 0.00 | 41 | 1014.6 |
| 20260905173537 | 80 | 241 | 3.0 | 5.0 | 0.00 | 0.00 | 0.00 | 41 | 1014.2 |
| 20260905173037 | 81 | 270 | 2.0 | 2.0 | 0.00 | 0.00 | 0.00 | 41 | 1014.2 |
| 20260905172535 | 81 | 290 | 3.0 | 3.0 | 0.00 | 0.00 | 0.00 | 40 | 1014.2 |
| 20260905172036 | 81 | 237 | 2.0 | 2.0 | 0.00 | 0.00 | 0.00 | 40 | 1014.2 |
| 20260905171536 | 81 | 263 | 3.0 | 5.0 | 0.00 | 0.00 | 0.00 | 40 | 1014.2 |
| 20260905171036 | 81 | 256 | 2.0 | 2.0 | 0.00 | 0.00 | 0.00 | 40 | 1014.2 |
| 20260905170536 | 82 | 248 | 4.0 | 5.0 | 0.00 | 0.00 | 0.00 | 40 | 1014.2 |
| 20260905170037 | 82 | 172 | 1.0 | 2.0 | 0.00 | 0.00 | 0.00 | 39 | 1013.9 |
| 20260905165536 | 82 | 167 | 1.0 | 1.0 | 0.00 | 0.00 | 0.00 | 39 | 1013.9 |
| 20260905165036 | 82 | 198 | 0.0 | 0.0 | 0.00 | 0.00 | 0.00 | 39 | 1013.5 |
| 20260905164536 | 82 | 151 | 2.0 | 5.0 | 0.00 | 0.00 | 0.00 | 39 | 1013.5 |
| 20260905164036 | 82 | 244 | 1.0 | 1.0 | 0.00 | 0.00 | 0.00 | 39 | 1013.5 |
| 20260905163536 | 82 | 227 | 4.0 | 5.0 | 0.00 | 0.00 | 0.00 | 39 | 1013.5 |
| 20260905163036 | 82 | 179 | 0.0 | 0.0 | 0.00 | 0.00 | 0.00 | 40 | 1013.5 |
| 20260905162536 | 82 | 168 | 2.0 | 3.0 | 0.00 | 0.00 | 0.00 | 40 | 1013.5 |
| 20260905162036 | 83 | 152 | 1.0 | 1.0 | 0.00 | 0.00 | 0.00 | 40 | 1013.5 |
| 20260905161537 | 83 | 130 | 0.0 | 1.0 | 0.00 | 0.00 | 0.00 | 41 | 1013.5 |
| 20260905161036 | 83 | 160 | 2.0 | 3.0 | 0.00 | 0.00 | 0.00 | 40 | 1013.5 |
| 20260905160536 | 83 | 140 | 1.0 | 0.0 | 0.00 | 0.00 | 0.00 | 40 | 1013.5 |
| 20260905160036 | 83 | 164 | 2.0 | 3.0 | 0.00 | 0.00 | 0.00 | 40 | 1013.5 |
| 20260905155537 | 83 | 164 | 3.0 | 3.0 | 0.00 | 0.00 | 0.00 | 39 | 1013.2 |
| 20260905155036 | 84 | 254 | 1.0 | 1.0 | 0.00 | 0.00 | 0.00 | 39 | 1013.5 |
| 20260905154536 | 84 | 185 | 4.0 | 5.0 | 0.00 | 0.00 | 0.00 | 38 | 1013.5 |
| 20260905154036 | 84 | 209 | 3.0 | 5.0 | 0.00 | 0.00 | 0.00 | 38 | 1013.5 |
| 20260905153536 | 84 | 234 | 3.0 | 3.0 | 0.00 | 0.00 | 0.00 | 38 | 1013.5 |
| 20260905153036 | 85 | 256 | 6.0 | 9.0 | 0.00 | 0.00 | 0.00 | 38 | 1013.5 |
| 20260905152536 | 85 | 175 | 4.0 | 3.0 | 0.00 | 0.00 | 0.00 | 37 | 1013.2 |
| 20260905152036 | 86 | 145 | 2.0 | 2.0 | 0.00 | 0.00 | 0.00 | 37 | 1013.2 |
| 20260905151536 | 86 | 163 | 3.0 | 5.0 | 0.00 | 0.00 | 0.00 | 36 | 1013.2 |
| 20260905151037 | 86 | 209 | 1.0 | 1.0 | 0.00 | 0.00 | 0.00 | 35 | 1013.2 |
| 20260905150536 | 86 | 209 | 1.0 | 1.0 | 0.00 | 0.00 | 0.00 | 34 | 1013.2 |
| 20260905150038 | 87 | 211 | 4.0 | 5.0 | 0.00 | 0.00 | 0.00 | 34 | 1013.5 |
| 20260905145537 | 87 | 211 | 5.0 | 6.0 | 0.00 | 0.00 | 0.00 | 35 | 1013.5 |
| 20260905145037 | 88 | 213 | 5.0 | 8.0 | 0.00 | 0.00 | 0.00 | 35 | 1013.2 |
| 20260905144536 | 87 | 161 | 4.0 | 6.0 | 0.00 | 0.00 | 0.00 | 34 | 1013.2 |
| 20260905144036 | 88 | 196 | 3.0 | 3.0 | 0.00 | 0.00 | 0.00 | 34 | 1013.5 |
| 20260905143537 | 88 | 142 | 4.0 | 5.0 | 0.00 | 0.00 | 0.00 | 34 | 1013.5 |
| 20260905143036 | 89 | 233 | 5.0 | 6.0 | 0.00 | 0.00 | 0.00 | 33 | 1013.2 |
| 20260905142536 | 89 | 177 | 3.0 | 5.0 | 0.00 | 0.00 | 0.00 | 33 | 1013.2 |
| 20260905142037 | 89 | 192 | 4.0 | 6.0 | 0.00 | 0.00 | 0.00 | 33 | 1013.2 |
| 20260905141536 | 89 | 209 | 3.0 | 3.0 | 0.00 | 0.00 | 0.00 | 32 | 1013.2 |
| 20260905141037 | 89 | 153 | 4.0 | 5.0 | 0.00 | 0.00 | 0.00 | 31 | 1013.2 |
| 20260905140536 | 89 | 207 | 5.0 | 6.0 | 0.00 | 0.00 | 0.00 | 32 | 1013.2 |
| 20260905140036 | 89 | 197 | 3.0 | 5.0 | 0.00 | 0.00 | 0.00 | 31 | 1013.2 |
| 20260905135537 | 90 | 200 | 3.0 | 5.0 | 0.00 | 0.00 | 0.00 | 31 | 1013.2 |
| 20260905135036 | 90 | 179 | 5.0 | 6.0 | 0.00 | 0.00 | 0.00 | 30 | 1013.2 |
| 20260905134536 | 91 | 189 | 6.0 | 8.0 | 0.00 | 0.00 | 0.00 | 29 | 1013.2 |
| 20260905134036 | 91 | 253 | 3.0 | 3.0 | 0.00 | 0.00 | 0.00 | 27 | 1013.5 |
| 20260905133536 | 91 | 173 | 3.0 | 5.0 | 0.00 | 0.00 | 0.00 | 26 | 1013.2 |
| 20260905133036 | 92 | 242 | 5.0 | 9.0 | 0.00 | 0.00 | 0.00 | 26 | 1012.9 |
| 20260905132537 | 92 | 235 | 2.0 | 3.0 | 0.00 | 0.00 | 0.00 | 25 | 1013.2 |
| 20260905132036 | 93 | 211 | 3.0 | 6.0 | 0.00 | 0.00 | 0.00 | 24 | 1012.9 |
| 20260905131536 | 92 | 343 | 3.0 | 5.0 | 0.00 | 0.00 | 0.00 | 24 | 1012.9 |
| 20260905131038 | 92 | 271 | 5.0 | 6.0 | 0.00 | 0.00 | 0.00 | 23 | 1013.2 |
| 20260905130536 | 93 | 229 | 5.0 | 6.0 | 0.00 | 0.00 | 0.00 | 23 | 1013.2 |
| 20260905130036 | 93 | 203 | 2.0 | 3.0 | 0.00 | 0.00 | 0.00 | 22 | 1013.2 |
| 20260905125536 | 94 | 212 | 3.0 | 6.0 | 0.00 | 0.00 | 0.00 | 20 | 1013.2 |
| 20260905125037 | 94 | 256 | 5.0 | 6.0 | 0.00 | 0.00 | 0.00 | 19 | 1013.2 |
| 20260905124536 | 94 | 260 | 3.0 | 3.0 | 0.00 | 0.00 | 0.00 | 19 | 1013.2 |
| 20260905124036 | 94 | 198 | 2.0 | 3.0 | 0.00 | 0.00 | 0.00 | 18 | 1012.9 |
| 20260905123537 | 96 | 224 | 4.0 | 6.0 | 0.00 | 0.00 | 0.00 | 18 | 1012.9 |